Location: McFarlands Corners
(41.4117°N, 81.3382°W)
Time: 20:02:16
(UTC+00:00)

SR - Pass Details

Date: 24 February 2026
Orbit: 572 x 848 km, 66.7° (Epoch: 8 March)

Event Time Altitude Azimuth Distance (km) Brightness Sun altitude
Rises 17:38:37 0° 325° (NW) 3,133 ? 39.3°
Reaches altitude 10° 17:40:57 10° 320° (NW) 2,252 ? 39.3°
Maximum altitude 17:45:58 52° 245° (WSW) 962 ? 39.3°
Drops below altitude 10° 17:51:19 10° 170° (S) 2,395 ? 39.2°
Sets 17:53:51 0° 166° (SSE) 3,351 ? 39.2°
